Tracking 19576 objects as of 17-Feb-2019
HD Live streaming from Space Station
objects crossing your sky now

COSMOS 651

Track COSMOS 651 now!
10-day predictions
COSMOS 651 is classified as:


NORAD ID: 7291
Int'l Code: 1974-029A
Perigee: 888.0 km
Apogee: 963.1 km
Inclination: 65.0 °
Period: 103.4 minutes
Semi major axis: 7296 km
RCS: 2.44 m2 (large)
Launch date: May 15, 1974
Source: Commonwealth of Independent States (former USSR) (CIS)
Launch site: TYURATAM MISSILE AND SPACE COMPLEX (TTMTR)
aabbcc
Your satellite tracking list
Your tracking list is empty




NASA's NSSDC Master Catalog

Two Line Element Set (TLE):
1  7291U 74029A   19047.85476630 -.00000099 +00000-0 -59797-5 0  9993
2  7291 064.9698 159.8771 0051487 236.5977 123.0157 13.92925850277790
Source of the keplerian elements: AFSPC